Theta_e
345 345 345 345 343 343 343 341 340 340 339 338 338 338 337 338 340 341 341 341 340 338 336 336 339 341 341 340 340 338 336 337 335 334 336 337 337 336 333 330 329 329 329 331 331 331 331 331 331 331 332 332 332 332 332 331 330 329 329 329 329 329 329 329 329 328 328 328 327 326 326 326 326 326
343 344 345 345 343 343 344 343 341 341 341 340 339 339 338 339 340 341 342 341 339 338 336 334 338 341 341 340 340 339 338 338 335 335 337 337 337 337 333 330 330 329 330 330 331 331 332 332 332 331 332 332 332 332 332 332 331 330 329 328 328 328 328 328 328 328 327 327 327 327 326 326 326 326
344 344 345 345 344 343 344 343 341 342 341 340 339 339 339 340 340 340 341 340 339 338 337 335 337 339 340 339 338 339 339 339 336 335 338 339 338 336 332 330 330 330 330 330 331 331 331 331 331 331 331 331 331 332 331 331 331 331 330 328 328 328 328 328 328 328 327 327 327 327 327 327 326 326
346 345 345 346 344 343 343 343 342 342 342 340 340 340 341 341 340 340 340 341 341 339 337 336 337 337 338 338 338 339 339 340 338 336 337 339 339 336 334 334 333 331 330 329 329 329 329 329 329 329 330 330 330 330 330 330 330 330 330 330 329 328 328 328 328 328 328 327 327 327 327 327 327 327
349 347 346 346 345 344 344 343 342 342 342 341 340 341 342 341 341 341 341 340 341 340 339 338 337 337 338 338 339 339 339 339 340 338 338 339 339 338 337 337 336 336 333 331 330 330 330 330 329 329 329 329 329 330 330 330 330 330 330 330 330 329 329 329 329 329 328 328 327 327 327 327 327 327
351 349 347 346 346 345 344 344 343 342 342 341 341 342 342 341 341 342 341 340 340 341 342 341 338 337 339 339 339 340 339 338 339 340 340 340 339 339 338 337 336 337 336 334 333 333 333 333 332 331 331 330 330 330 330 330 330 330 330 329 329 330 329 330 329 329 328 328 328 328 327 327 327 327
353 351 349 347 346 345 345 345 344 343 342 342 342 342 342 342 342 343 342 341 341 341 341 342 340 339 340 339 339 340 340 340 340 340 340 339 338 338 338 338 336 337 337 335 334 334 334 334 334 333 332 332 331 331 330 329 329 329 329 329 329 329 329 329 329 329 329 328 328 328 327 326 326 327
355 353 351 348 346 346 346 345 344 344 343 343 342 342 343 343 342 343 343 342 342 342 342 342 341 340 341 340 339 340 340 340 340 340 339 339 339 339 339 339 339 339 338 335 334 334 334 334 333 333 333 333 332 332 332 331 330 330 329 329 329 329 329 329 329 328 328 328 328 328 327 326 325 326
356 354 353 350 348 347 347 346 345 345 344 344 343 343 343 344 343 343 344 344 342 342 342 342 342 342 341 340 340 340 340 340 340 341 341 340 341 341 339 338 338 339 338 336 335 335 334 334 334 333 333 333 333 333 332 332 331 330 330 330 329 329 329 329 329 329 328 329 329 328 328 326 325 325
357 356 354 352 350 348 348 347 345 345 346 345 345 344 344 344 344 343 343 344 343 343 343 343 342 342 341 341 341 341 341 341 341 342 343 343 342 342 341 339 338 338 338 338 337 336 335 335 335 334 333 332 332 332 332 331 331 330 330 330 330 329 329 329 329 329 328 328 328 327 327 326 325 324
357 356 355 354 352 350 350 349 346 346 347 347 346 345 344 344 345 344 344 343 342 342 343 343 342 341 340 341 342 343 344 343 342 342 342 342 343 343 343 343 341 339 339 338 337 336 335 334 333 333 332 331 330 329 329 329 329 330 330 330 329 329 329 329 329 329 328 328 327 326 326 325 324 323
357 356 355 354 353 352 351 350 348 346 347 348 347 346 345 345 345 345 344 343 342 342 342 342 342 341 340 340 341 344 346 344 343 343 343 343 343 343 344 343 342 341 340 338 336 336 336 335 334 334 333 332 331 329 328 328 329 329 330 330 329 329 329 329 328 328 327 326 326 325 324 323 323 322
357 356 355 355 354 353 352 351 348 346 347 347 347 347 346 345 345 346 345 343 342 342 342 341 342 341 341 340 341 344 345 344 343 343 344 344 343 341 341 342 343 342 340 338 337 336 336 336 335 335 334 334 333 332 331 330 330 331 330 330 329 328 327 327 326 326 325 324 324 324 324 323 323 323
357 356 355 354 353 352 351 350 348 346 345 345 345 346 347 346 345 346 345 344 343 343 342 342 341 341 341 341 341 342 343 343 343 344 344 344 343 342 340 340 342 342 339 338 337 335 335 334 333 333 333 333 334 333 332 331 331 330 329 328 327 326 325 325 324 324 324 324 324 324 323 323 322 321
357 356 355 355 353 352 350 350 348 346 344 342 340 341 344 345 345 345 345 344 344 343 343 342 341 341 341 340 341 343 343 342 342 343 343 343 343 342 340 338 341 341 339 338 336 333 333 333 332 332 332 332 333 333 332 331 329 326 325 325 324 323 322 322 322 322 322 323 323 323 322 321 319 318
357 357 356 356 355 353 351 349 348 346 344 342 340 338 340 342 343 343 344 345 344 343 343 342 341 341 340 340 342 343 342 342 343 343 344 343 343 341 340 339 339 339 337 336 335 333 332 332 331 331 331 331 332 332 331 330 328 324 321 320 319 319 318 318 319 319 319 320 321 322 321 320 319 319
358 357 357 356 356 354 351 349 348 347 345 343 341 338 338 340 341 340 340 342 343 343 342 342 342 341 339 341 344 344 342 342 343 343 343 343 342 341 340 340 340 338 336 335 333 332 331 330 330 330 330 330 330 330 329 329 327 325 322 319 316 314 313 314 315 316 316 317 317 318 318 318 318 317
358 358 357 357 356 355 352 350 349 349 347 344 342 339 338 339 340 339 338 338 339 340 341 341 341 341 340 343 346 345 343 342 342 343 343 343 342 342 341 340 338 336 334 332 332 331 331 329 328 328 328 327 327 327 327 326 325 324 322 320 316 311 309 309 310 311 311 311 312 312 312 312 313 312
358 358 358 358 357 356 354 350 349 350 349 347 344 341 340 340 341 341 340 339 339 340 340 340 340 341 342 344 344 343 343 343 342 342 343 343 342 341 339 337 335 334 332 332 332 332 331 329 327 326 326 325 325 325 325 324 323 322 321 319 314 310 309 309 308 308 308 308 308 308 308 308 309 309
357 357 358 358 357 356 354 351 349 349 350 350 348 345 343 343 342 342 342 341 340 340 340 340 339 339 340 342 341 340 342 343 342 341 341 341 340 338 336 335 333 332 332 332 332 331 330 328 326 324 324 324 324 325 324 323 323 322 320 317 314 312 311 310 310 309 308 307 306 306 306 306 307 307
356 356 357 358 358 357 355 352 349 348 349 350 350 348 346 345 344 343 343 342 341 340 339 341 341 339 339 340 338 336 338 340 340 340 339 338 338 337 337 336 333 331 331 331 330 330 329 327 325 324 324 324 324 324 323 322 322 320 319 317 314 313 312 311 311 310 309 308 307 307 306 307 308 309
355 355 355 357 357 357 355 352 350 348 347 349 350 349 347 347 345 344 343 343 342 340 339 340 340 339 338 338 335 333 333 335 336 338 338 336 336 336 336 334 332 330 330 329 329 329 328 326 324 324 324 324 323 323 322 320 319 318 317 316 315 314 313 312 311 310 310 310 310 309 308 309 310 311
355 355 355 355 356 356 355 352 350 348 347 348 349 348 347 347 346 344 342 343 343 341 340 340 339 338 338 335 332 331 331 333 336 338 337 335 335 334 333 332 330 330 329 328 328 328 327 325 323 323 323 323 323 321 320 318 317 316 315 315 315 315 314 313 312 312 312 311 311 311 312 312 312 312
354 354 355 355 354 354 353 352 350 349 347 347 348 348 348 347 346 344 342 341 342 342 341 340 339 338 336 334 332 333 334 336 337 338 336 335 334 333 331 330 329 328 327 328 327 326 324 322 322 322 322 322 322 319 317 316 315 315 314 315 315 315 314 313 314 314 314 313 313 314 314 314 314 315
355 354 355 355 354 353 352 350 350 349 347 346 346 347 347 346 345 344 342 342 342 341 341 341 340 338 337 336 334 335 336 337 337 336 335 333 333 332 330 328 328 327 326 326 324 324 323 322 321 322 321 321 320 317 315 314 314 314 314 313 313 313 313 313 313 314 314 315 315 315 315 316 316 315
354 354 355 355 353 352 350 349 349 349 347 345 344 345 346 345 344 343 341 342 342 341 340 340 339 338 338 336 335 334 335 336 335 333 332 331 331 331 329 328 328 327 326 325 323 323 323 323 322 321 320 319 317 315 314 314 313 313 313 313 313 313 312 312 313 314 315 315 315 316 316 316 316 316
355 355 355 354 352 351 349 347 348 348 346 344 343 343 344 343 343 342 340 341 341 339 338 338 338 337 337 335 334 333 334 334 333 331 330 330 330 330 328 327 326 325 324 324 323 322 322 322 321 319 318 317 316 315 314 313 312 312 312 312 312 312 312 312 314 314 315 315 315 316 316 317 317 317
357 356 355 352 351 350 347 346 346 346 345 344 342 342 343 343 342 341 340 340 341 339 337 337 337 337 336 334 334 334 333 333 332 331 331 330 329 328 327 325 324 323 323 322 321 321 321 320 319 317 315 315 314 314 313 313 312 312 312 312 311 311 312 314 315 315 315 315 316 316 317 317 317 317
357 356 354 351 350 349 347 346 345 344 344 343 341 340 342 343 342 341 340 340 340 339 337 337 337 336 335 334 334 334 333 332 332 331 330 328 327 326 326 325 324 323 322 321 319 319 318 318 316 314 313 313 313 312 312 313 313 312 312 311 312 312 314 315 315 315 315 315 316 316 316 316 317 317
356 355 353 351 349 347 346 345 344 343 342 342 340 340 341 342 341 340 340 340 340 339 338 337 336 335 335 334 333 333 332 331 331 330 328 326 325 325 324 324 323 322 322 321 319 317 316 315 314 313 313 313 312 312 312 312 312 311 311 312 313 314 315 315 314 314 315 315 315 315 316 316 316 317
355 354 352 350 348 347 346 344 342 342 341 340 340 339 340 340 339 339 340 340 339 339 337 336 336 335 334 334 333 332 332 331 330 328 326 325 325 324 323 323 323 322 321 320 318 316 315 314 312 312 313 313 313 313 312 311 311 311 311 313 314 315 315 314 314 314 315 315 315 315 316 316 316 315
354 353 351 349 347 345 342 339 338 338 339 338 338 338 338 339 339 339 339 338 338 338 337 336 335 335 334 333 332 332 331 330 329 327 326 326 325 324 323 323 322 321 320 319 318 316 315 314 313 313 313 313 313 312 312 311 311 311 313 314 315 315 314 314 315 314 315 315 316 316 316 316 315 315
350 349 346 344 341 338 336 335 335 335 336 336 336 336 338 339 339 338 338 338 338 337 336 336 335 334 333 332 331 330 330 328 328 327 326 326 325 324 323 322 321 320 319 318 318 316 315 314 314 314 314 313 313 312 311 311 311 312 313 314 314 314 314 315 315 315 315 316 316 316 316 315 314 314
345 343 341 338 336 335 335 335 335 335 335 336 336 336 337 338 338 338 338 338 337 337 336 335 334 333 332 331 330 329 328 328 327 327 326 325 325 324 323 321 320 319 319 317 317 316 314 314 313 313 313 314 314 314 315 314 314 314 314 314 313 313 314 315 316 315 315 316 316 316 315 313 313 313
341 340 338 336 335 336 336 336 335 335 335 336 336 336 336 337 337 337 337 337 336 336 335 334 333 332 331 330 329 329 328 327 327 327 326 325 324 323 322 320 320 319 318 317 316 315 313 312 312 312 312 312 313 314 315 315 315 316 315 314 313 313 314 315 316 316 315 315 315 315 314 313 313 313
339 339 339 337 335 337 337 336 335 336 336 336 337 336 336 336 336 336 336 335 335 334 334 333 332 331 330 330 329 328 328 327 326 327 326 323 322 322 321 319 319 318 317 316 315 314 312 311 311 311 311 312 312 313 313 314 315 315 314 314 314 313 313 315 316 316 315 314 314 313 313 313 312 312
339 339 338 336 336 337 337 336 335 336 336 336 336 336 335 335 335 335 335 334 334 334 333 332 331 330 329 329 329 328 327 326 325 325 324 322 321 321 320 319 319 318 316 315 314 313 311 310 310 310 311 312 312 312 312 314 314 314 314 313 313 313 314 315 316 315 314 314 313 314 314 313 313 313
339 338 336 335 336 336 336 336 335 335 336 336 335 335 334 335 335 335 334 333 334 333 331 330 330 329 328 328 329 327 326 325 324 323 322 321 321 321 320 319 318 317 315 315 314 312 311 311 311 311 311 312 312 311 311 312 313 313 313 313 313 314 315 316 316 315 314 314 314 313 313 312 313 313
337 336 335 336 336 336 335 335 335 335 335 335 334 334 334 334 334 334 334 333 333 332 330 330 330 329 328 328 328 327 325 325 323 322 321 321 321 320 319 319 317 316 314 314 313 311 311 311 311 311 312 312 312 311 310 310 310 311 312 313 314 315 316 316 316 315 315 314 313 312 312 312 312 312
336 336 336 335 336 335 334 334 334 334 334 334 333 334 334 333 334 334 333 333 332 330 329 329 329 328 328 328 327 326 325 324 323 321 321 320 320 319 318 317 316 314 314 313 312 311 310 310 311 312 312 311 309 308 309 310 311 313 314 315 314 314 315 316 316 316 315 314 313 313 313 312 312 311
335 335 335 335 335 335 334 334 335 334 335 334 334 334 333 333 333 333 332 332 331 330 329 329 329 329 329 328 327 325 323 322 322 321 321 321 319 318 316 314 313 312 312 311 311 310 310 310 311 310 309 308 308 309 312 314 315 315 314 313 312 312 313 314 314 315 315 314 313 313 312 311 310 310
334 334 334 334 334 334 334 334 335 335 334 334 334 333 334 333 332 332 332 331 330 330 330 329 329 329 329 328 326 325 323 322 321 321 320 320 319 316 314 312 311 310 310 311 311 310 310 310 310 309 309 310 311 312 314 315 315 315 314 313 312 313 314 314 314 314 313 313 313 312 312 311 310 309
333 333 333 333 333 333 334 335 335 334 334 333 333 333 333 333 332 332 331 331 331 331 330 330 329 329 328 326 325 324 323 321 321 320 320 319 317 315 313 311 311 311 311 311 310 309 309 309 309 310 311 312 311 312 312 313 314 314 314 313 313 314 314 314 314 313 312 312 312 312 311 310 309 308
333 333 333 333 333 333 334 334 334 334 333 333 333 333 333 332 332 332 331 332 332 331 329 329 329 328 327 325 325 323 322 321 320 320 319 317 314 313 313 313 312 312 311 310 309 309 309 309 309 309 310 311 311 311 312 313 313 314 314 313 313 313 313 313 313 313 312 312 311 311 310 309 308 307
334 334 333 333 333 334 334 334 333 333 333 333 333 333 332 331 331 331 331 331 331 330 329 328 328 327 326 324 323 322 321 320 319 318 316 315 313 312 312 312 312 311 311 310 309 309 309 309 309 310 310 311 311 311 312 312 313 313 313 312 312 312 312 312 312 312 312 311 311 311 309 308 307 306
Wind_Speed
14 14 14 13 11 11 11 10 9 8 8 8 7 8 8 7 5 3 4 4 5 7 7 7 7 8 8 7 8 9 8 10 11 9 8 9 9 11 12 11 12 13 12 12 12 12 12 13 13 13 13 13 13 12 12 11 11 12 12 12 12 12 12 12 12 13 13 13 13 12 12 12 11 11
15 15 15 14 13 12 12 12 11 10 9 9 9 9 9 8 7 5 4 4 5 5 6 6 5 7 7 7 7 7 7 10 11 8 8 8 8 10 11 10 11 12 13 14 14 14 14 14 15 15 15 15 15 15 14 14 14 14 14 14 14 14 14 14 14 14 14 14 15 14 14 14 14 13
15 16 16 15 14 13 13 13 13 12 11 11 11 11 10 10 9 8 6 4 4 5 6 6 4 5 7 7 7 7 7 9 10 8 8 9 10 12 12 11 12 13 14 15 14 14 14 14 14 14 15 15 16 16 16 16 16 16 17 16 17 17 16 16 15 15 15 16 16 17 17 16 16 16
16 17 17 16 15 14 14 14 14 13 13 13 12 12 12 11 11 10 9 7 5 6 6 6 5 6 7 8 8 7 7 8 10 9 8 9 10 11 10 11 12 12 12 13 12 12 12 12 13 13 14 14 15 15 15 15 15 16 17 18 19 19 19 18 18 17 16 16 17 17 18 18 18 18
16 17 18 17 16 16 15 15 14 14 15 15 14 13 13 12 12 12 11 9 7 7 7 7 7 7 8 8 9 9 8 8 8 8 7 8 9 8 8 9 11 12 11 10 10 10 11 11 12 12 13 13 14 15 15 16 16 16 17 18 19 20 21 20 20 18 17 17 17 16 17 18 19 19
17 17 18 18 17 17 17 16 16 15 15 16 15 14 14 13 13 13 12 11 9 9 8 8 9 9 9 10 9 9 10 9 8 7 7 8 8 9 9 9 9 11 12 11 11 11 12 12 13 14 14 14 15 15 16 16 17 18 18 18 19 19 19 19 19 18 18 17 17 17 17 17 18 19
19 18 19 19 19 18 18 18 17 16 16 16 15 15 15 14 13 13 13 12 10 10 9 9 10 10 10 11 10 10 10 9 8 9 9 9 9 9 9 9 9 10 13 14 13 13 14 14 15 16 17 18 17 17 17 17 17 18 18 19 19 19 18 18 18 17 17 18 18 18 17 17 18 19
20 20 20 20 20 19 19 19 18 17 17 16 16 16 16 15 14 13 13 13 12 10 9 10 10 10 10 10 10 10 10 10 9 9 9 9 9 8 9 9 8 10 14 15 15 15 16 17 18 19 20 20 20 20 20 19 19 18 18 19 19 19 19 19 18 19 19 20 20 19 19 19 18 19
22 22 21 21 21 21 20 20 19 19 18 18 17 17 17 16 15 14 14 14 13 12 10 10 10 10 9 10 10 10 10 10 10 9 9 9 8 8 9 9 8 10 13 14 13 15 16 17 18 19 20 20 20 20 20 20 20 20 19 19 19 20 22 21 20 21 22 22 21 21 21 20 20 21
23 23 22 22 22 22 22 21 20 20 20 20 19 19 18 17 16 16 15 15 14 14 12 11 10 11 11 10 10 11 11 10 9 8 8 8 9 9 9 8 8 9 10 11 11 12 13 14 16 18 19 18 17 18 19 19 19 19 19 19 18 19 21 22 21 20 20 21 21 21 21 22 22 23
23 23 23 23 23 24 24 23 21 21 21 21 20 20 19 18 17 16 16 16 15 15 13 12 12 11 12 11 11 10 10 9 9 8 8 8 9 9 8 8 8 8 9 11 12 12 12 12 13 16 17 17 16 16 17 17 18 18 18 17 17 16 17 18 18 18 19 20 20 21 22 23 23 24
24 23 24 24 24 25 25 24 23 22 22 21 21 20 19 18 18 17 16 16 17 16 14 13 13 12 12 12 12 11 10 10 9 9 9 9 8 8 8 7 8 8 9 10 11 11 11 11 11 12 15 16 16 16 16 16 15 14 15 15 16 16 17 17 18 19 19 20 21 21 21 22 22 22
24 24 24 24 25 26 26 26 25 24 24 22 20 20 20 19 18 18 17 16 17 16 15 14 13 13 13 13 13 13 12 11 9 9 9 10 9 9 8 7 8 8 8 8 8 8 9 10 11 12 14 14 14 15 15 14 11 9 11 15 16 17 17 17 18 18 19 19 19 19 20 20 20 21
24 24 25 25 26 27 29 29 29 28 27 26 23 20 20 20 19 18 18 17 17 16 16 15 14 14 14 14 14 14 12 11 10 9 9 10 10 9 9 8 7 7 6 6 8 10 10 11 12 12 13 13 13 13 13 11 10 11 13 16 16 16 16 16 17 18 18 18 18 19 19 19 19 19
24 24 25 25 25 27 30 31 31 31 30 30 28 24 23 23 22 20 19 18 18 17 16 15 15 15 15 14 13 13 12 11 10 10 10 10 9 8 9 8 5 6 6 6 10 13 11 11 13 13 13 13 12 12 12 12 12 13 13 13 13 14 14 15 15 16 17 18 18 18 18 18 18 18
25 24 24 24 23 25 28 29 30 32 33 31 30 29 27 27 26 24 22 19 18 18 17 16 15 15 15 14 13 13 11 10 10 10 10 10 9 9 9 8 6 4 4 6 11 14 11 10 12 13 13 13 12 13 13 13 13 12 11 12 12 14 15 16 16 17 17 18 18 19 19 19 20 20
26 25 24 23 22 23 26 28 27 29 33 33 31 30 30 30 30 29 27 24 21 19 18 17 17 16 15 14 13 12 11 9 9 9 9 9 9 9 8 8 6 4 5 8 11 13 12 11 12 13 13 13 13 13 13 14 14 14 14 14 13 14 15 16 17 17 18 18 19 20 21 21 22 23
27 26 25 24 23 22 25 28 27 25 28 31 32 33 32 32 32 32 31 30 28 24 21 19 18 17 15 14 12 10 10 10 10 9 9 8 8 8 7 6 7 7 8 10 11 12 11 11 12 13 14 14 14 13 14 14 15 15 15 14 15 15 14 13 14 15 16 17 18 19 20 21 22 23
27 27 27 26 25 23 24 28 29 26 25 27 30 33 33 31 29 30 31 30 29 27 24 21 19 17 16 15 13 10 11 11 11 9 7 7 6 7 7 8 9 10 10 10 9 11 11 11 13 15 15 15 14 13 14 15 16 14 13 14 17 16 13 12 13 13 14 16 17 18 19 20 21 22
26 27 28 27 26 25 24 27 31 29 26 24 25 27 28 27 26 26 28 29 28 27 24 21 20 19 17 16 14 12 12 11 10 9 8 8 7 7 8 9 10 9 7 7 7 9 11 11 14 16 15 14 14 14 14 15 14 12 13 16 18 16 15 15 15 15 17 17 18 18 19 20 21 22
27 29 31 29 27 26 25 27 30 31 28 24 24 25 24 24 25 24 24 26 28 28 25 21 22 21 19 17 16 15 16 15 12 10 10 10 10 9 8 9 9 8 7 6 6 9 12 12 13 14 13 13 14 14 13 11 11 13 16 18 17 15 16 17 17 19 19 18 17 16 17 18 19 20
28 30 32 32 30 27 27 29 29 30 30 27 25 26 24 23 23 22 21 21 24 27 28 25 24 23 20 18 18 17 18 18 15 13 11 10 10 9 9 9 9 8 8 7 7 8 11 11 11 12 13 13 13 12 11 10 11 13 15 16 15 16 17 18 19 21 20 18 17 16 15 15 16 18
31 30 31 34 34 29 27 31 31 29 31 30 26 26 25 23 22 22 22 21 21 23 27 27 25 23 20 19 19 18 18 19 18 15 13 11 10 9 9 9 8 7 8 6 7 7 8 9 10 11 12 11 10 10 11 12 12 13 14 14 15 15 16 18 19 19 18 17 17 17 16 14 14 15
31 31 30 33 37 34 31 33 32 30 32 32 27 26 26 25 22 21 22 23 22 22 23 23 22 21 19 19 19 17 17 19 19 16 14 12 11 10 10 9 9 9 6 3 5 3 7 9 11 11 11 10 10 11 12 13 13 14 14 14 14 14 15 16 17 17 16 17 17 17 17 15 14 15
31 31 31 32 36 37 36 37 35 32 33 34 30 27 27 25 22 21 22 22 22 21 21 20 19 18 18 18 17 16 15 16 16 15 13 13 11 10 10 10 10 10 5 1 1 4 6 9 11 11 11 11 13 14 14 13 14 14 13 14 14 15 15 15 15 15 15 15 16 17 16 16 17 19
34 34 35 35 36 37 38 40 38 33 32 35 33 29 26 24 22 22 22 21 22 22 22 20 18 17 16 16 16 16 15 14 14 13 13 13 12 11 10 8 8 7 5 3 4 4 6 9 10 10 11 12 13 14 14 14 13 13 13 14 14 15 15 15 15 14 14 15 16 16 16 18 20 20
38 37 39 40 38 37 38 41 41 36 33 36 35 30 26 25 24 23 23 21 21 23 22 20 18 17 17 16 15 15 15 14 13 12 12 12 11 10 8 6 5 6 6 5 5 5 7 9 10 10 11 11 12 13 13 14 14 14 15 15 15 15 14 14 15 15 15 15 16 16 17 18 18 19
34 35 39 40 37 37 38 40 40 37 34 36 36 32 28 26 24 25 24 21 21 23 21 20 19 18 17 16 15 15 14 13 12 12 10 10 10 9 8 7 6 7 8 7 7 8 8 9 10 10 10 11 12 13 13 14 15 15 16 16 15 15 14 14 15 15 15 16 16 16 17 18 18 18
31 33 36 36 34 35 36 37 38 38 35 34 35 34 30 26 25 26 25 22 22 23 22 21 20 18 16 15 14 13 12 12 12 12 11 9 9 8 8 8 7 8 9 9 9 9 9 9 10 10 10 10 12 13 14 15 16 16 16 16 16 15 14 14 14 15 15 16 16 17 18 19 19 19
33 33 37 38 35 34 36 39 40 39 35 32 33 34 31 27 26 27 26 24 23 23 23 22 20 18 16 15 13 12 12 13 14 13 12 10 9 9 8 8 8 9 10 9 9 9 8 9 9 9 10 11 12 13 14 15 17 17 16 16 16 15 14 13 14 15 15 16 18 19 20 20 20 20
37 37 40 40 37 35 37 40 40 39 36 32 31 32 30 27 26 26 26 24 23 24 24 22 19 16 15 14 13 13 15 15 14 13 12 11 11 10 10 9 9 10 9 9 9 9 9 9 9 10 11 11 12 13 14 15 16 17 17 16 15 15 14 14 15 15 16 18 20 21 21 22 22 22
39 39 41 40 38 39 39 38 35 34 33 32 28 26 25 24 24 24 23 23 23 23 22 20 18 17 16 15 15 16 16 15 14 13 13 12 11 10 9 9 9 9 9 9 9 9 9 10 10 10 10 11 12 14 15 15 16 16 16 15 15 15 15 15 15 16 17 19 21 22 22 23 24 24
36 38 42 41 40 41 39 36 34 33 32 31 26 23 23 23 22 23 24 24 23 22 20 19 19 18 17 16 17 17 16 14 14 13 13 12 11 10 9 9 10 10 9 9 8 8 9 9 9 10 11 13 14 15 15 15 16 15 14 14 14 15 15 14 15 17 18 19 21 22 23 24 24 24
34 36 41 40 42 43 40 35 34 34 35 35 32 29 30 27 24 24 26 25 24 22 20 20 20 19 17 18 18 17 16 15 14 14 14 13 12 10 10 10 10 10 10 9 9 8 8 8 9 10 12 14 16 17 17 17 15 14 13 13 14 15 15 15 16 17 18 19 21 23 25 26 25 24
37 38 38 37 40 42 40 36 36 36 36 36 35 33 33 30 27 26 27 26 24 23 21 20 20 20 19 19 18 17 17 16 15 14 14 13 13 12 11 11 10 10 9 9 9 9 8 8 9 9 11 12 14 15 17 18 16 12 12 13 14 15 16 16 16 17 19 20 20 22 24 26 26 24
38 38 38 38 40 42 39 37 39 40 38 37 36 34 32 30 30 29 28 27 25 22 21 20 20 20 20 19 18 17 17 16 15 15 14 14 15 13 12 11 10 10 10 10 10 9 8 8 8 9 10 10 9 10 10 11 11 10 12 14 15 16 17 16 17 18 19 20 20 21 22 24 26 26
37 36 34 30 32 38 40 40 40 40 39 37 36 34 31 31 30 29 28 28 25 22 22 21 20 19 19 18 17 17 17 15 15 15 15 15 14 13 12 11 10 11 11 10 10 9 8 8 8 8 9 8 6 7 7 5 8 10 12 14 16 17 17 16 17 19 19 19 20 20 21 23 25 26
36 35 29 19 14 19 30 36 35 35 36 36 35 33 32 31 28 26 30 31 25 22 23 22 20 19 19 18 18 18 17 16 16 15 15 14 14 13 12 11 11 11 11 10 10 9 9 9 8 8 9 8 6 6 8 9 10 11 12 15 18 18 16 16 18 19 19 19 19 21 22 23 25 26
39 35 32 31 29 28 34 38 36 33 33 34 34 33 32 30 25 25 30 30 24 21 22 21 19 20 19 19 19 17 16 16 16 15 15 15 14 13 11 10 11 11 10 10 10 10 10 10 9 8 9 9 8 8 10 13 15 16 16 18 20 18 16 17 18 19 19 19 20 22 22 23 24 25
41 37 34 38 38 36 38 41 40 37 34 33 34 34 31 29 26 26 28 27 23 21 20 20 19 20 19 19 19 17 16 17 17 16 15 14 14 12 11 11 11 10 10 11 11 10 10 8 7 7 8 9 10 12 14 16 18 18 18 17 17 17 18 18 18 19 19 20 21 23 23 23 23 23
41 38 37 39 38 36 36 37 37 36 35 33 34 34 31 30 30 29 27 26 24 22 20 19 20 19 19 19 19 17 17 17 17 16 15 14 13 11 10 10 11 11 11 11 11 10 8 6 6 8 10 10 11 13 13 14 14 14 14 14 16 17 18 17 17 19 19 20 21 22 22 23 24 25
41 38 37 39 39 37 35 34 34 35 35 34 35 33 30 29 29 27 26 26 25 22 19 18 19 19 19 19 18 18 17 17 17 16 15 14 12 12 11 11 12 13 13 12 10 8 6 4 5 8 9 9 10 11 12 12 12 13 14 15 16 16 16 17 19 20 20 20 21 21 22 24 23 23
40 39 37 38 39 37 34 33 32 32 32 32 32 32 30 27 26 25 26 26 25 21 19 18 18 19 20 19 18 18 18 17 17 16 14 13 13 12 12 13 14 14 12 11 8 6 6 5 6 7 8 9 10 11 13 13 14 14 15 15 16 16 16 17 18 18 20 21 21 19 19 20 19 20
35 37 36 37 38 36 32 30 29 27 28 28 29 29 29 28 26 25 24 24 22 20 19 19 19 20 21 19 18 19 18 17 16 15 14 13 13 13 12 12 13 13 11 10 8 7 6 6 6 7 8 9 10 11 12 13 14 14 15 16 16 16 16 15 16 17 18 20 19 16 14 16 19 22
31 34 34 35 35 33 31 29 27 26 26 28 29 29 28 26 24 22 21 19 20 20 20 20 20 20 20 19 19 18 17 16 14 13 13 13 13 13 13 12 12 12 12 10 8 7 6 5 6 7 8 9 10 11 12 13 13 14 15 15 15 15 16 15 16 17 17 17 16 14 15 18 21 22
Wind_Direction
206 208 206 208 214 212 210 213 212 211 214 216 212 211 217 224 234 234 224 233 230 216 222 229 210 207 227 227 227 241 244 242 249 257 257 254 256 264 271 267 252 245 245 251 258 264 267 269 270 269 268 270 273 277 281 283 283 279 272 269 270 274 279 283 285 286 285 283 280 278 278 279 282 286
206 208 207 207 211 211 208 210 211 208 209 212 211 210 213 217 227 240 239 238 236 221 232 245 214 196 215 219 219 227 231 240 248 250 255 260 258 257 264 267 258 252 254 259 264 267 270 272 273 273 272 272 273 275 277 278 278 277 274 271 271 272 276 279 282 284 285 283 280 275 274 275 277 280
208 207 207 207 209 209 208 209 209 207 207 210 210 209 209 211 217 226 236 235 220 218 234 245 230 201 206 214 221 223 227 245 254 252 253 257 256 258 264 266 262 259 261 264 268 270 272 274 274 274 275 274 274 276 277 278 276 273 271 270 270 271 273 276 278 280 281 282 280 276 273 272 273 275
209 208 207 208 208 207 207 208 208 205 205 208 210 210 206 207 209 212 223 233 217 211 225 236 234 224 217 218 225 231 236 252 263 261 251 252 257 261 264 267 270 270 268 268 269 271 274 277 278 278 278 277 276 276 276 277 276 273 269 267 268 269 271 273 276 277 278 278 278 276 275 274 273 272
210 208 208 210 209 207 207 206 207 207 205 207 209 211 207 207 208 206 213 227 228 218 216 225 232 225 222 224 226 236 242 244 255 257 246 247 256 258 258 264 273 277 279 278 275 274 276 277 278 278 278 277 275 274 272 272 271 270 268 267 267 268 270 272 273 274 275 275 275 274 275 274 273 271
209 208 210 211 209 208 209 208 209 208 207 208 209 210 210 211 211 208 210 221 230 225 213 216 224 218 220 229 228 233 239 237 238 242 244 248 250 252 257 261 268 274 280 283 279 276 275 275 275 275 274 273 271 270 270 269 268 267 267 267 268 269 270 271 271 271 271 271 271 272 274 274 272 270
209 209 210 212 210 208 209 210 211 211 210 210 211 211 212 216 215 210 211 218 226 232 222 213 217 215 215 225 228 228 232 237 238 240 243 247 248 249 254 259 265 271 275 278 277 275 274 275 276 275 274 272 271 270 269 269 269 269 268 267 266 267 269 269 269 268 267 268 268 270 274 275 273 270
212 210 211 213 212 210 210 209 209 211 211 210 212 213 212 216 218 214 213 217 222 230 230 219 217 216 214 220 226 226 229 234 237 241 244 246 248 250 252 259 261 262 269 274 275 273 273 274 275 275 275 274 273 273 273 273 273 273 271 269 266 266 267 267 266 265 266 267 268 269 274 277 276 274
214 213 213 214 212 211 211 210 208 209 210 211 212 213 212 213 216 215 214 215 218 224 230 227 219 214 215 221 223 223 228 232 233 236 241 245 249 252 257 263 262 262 271 278 278 277 278 279 278 278 277 276 275 274 275 277 277 276 275 273 270 268 268 269 268 267 267 267 267 268 272 276 278 278
216 215 215 215 214 213 212 211 209 207 207 210 212 213 214 213 212 214 214 214 217 220 227 232 226 218 215 218 220 221 222 228 233 233 237 243 246 249 254 259 262 265 270 276 280 284 286 285 281 281 284 284 281 279 279 281 281 280 279 278 276 273 268 268 269 267 266 267 267 270 274 278 281 282
218 216 217 217 216 215 214 211 209 207 206 210 213 213 213 213 212 213 214 216 219 221 224 228 230 225 218 217 219 214 210 222 235 238 245 248 242 239 243 250 258 265 270 277 284 289 291 287 280 284 290 291 288 287 286 284 283 282 281 280 277 274 269 268 270 270 269 271 273 275 278 280 282 283
220 219 219 220 219 217 216 212 209 207 206 208 212 213 212 213 214 214 215 218 220 223 224 226 227 227 222 220 218 207 202 217 231 234 243 250 248 243 240 240 248 260 271 280 286 292 295 294 292 293 296 297 294 294 293 293 292 287 282 280 279 277 276 275 275 275 276 276 277 278 278 280 281 281
221 220 221 222 222 220 218 216 213 210 208 207 209 211 210 211 213 216 218 218 220 223 224 224 224 225 222 219 216 213 211 218 227 231 236 247 254 255 253 246 238 248 268 278 282 288 290 291 294 292 293 295 293 293 296 297 297 292 283 283 285 284 283 281 280 280 279 279 279 278 278 279 279 280
220 221 223 225 224 223 222 221 219 217 215 215 213 210 209 209 210 214 217 218 219 221 223 224 222 223 224 221 217 219 219 218 223 230 234 244 252 253 260 260 231 228 256 276 283 290 292 290 291 291 292 293 289 289 291 284 278 283 284 285 287 287 286 284 283 283 282 282 281 280 279 279 277 276
221 221 223 225 224 223 222 222 223 223 222 223 224 220 214 212 211 211 214 218 220 221 223 225 224 225 227 224 218 219 220 218 223 228 230 238 243 243 256 265 239 225 250 277 288 291 292 289 291 293 294 293 291 290 288 281 283 290 291 288 288 288 287 286 283 282 282 282 281 280 277 275 273 272
221 220 221 223 221 220 219 218 221 225 225 227 229 228 224 220 218 216 216 217 220 224 226 225 226 229 230 228 221 216 216 218 219 222 225 230 236 241 253 265 258 245 267 288 290 291 292 290 289 291 292 293 294 293 289 287 291 297 298 294 290 288 286 284 282 280 278 277 276 275 274 273 273 273
218 217 218 219 217 217 217 213 212 219 224 226 228 229 228 225 225 225 224 223 225 227 230 231 230 231 233 233 225 214 214 220 219 221 226 229 235 243 252 263 267 274 292 291 288 289 291 292 291 292 295 295 293 292 291 287 287 293 297 297 297 295 289 283 280 278 275 275 274 273 272 272 273 274
217 216 215 216 214 211 212 210 205 207 217 222 223 225 226 225 225 228 229 229 230 231 233 236 234 234 235 232 223 212 211 217 219 221 228 232 238 245 253 266 274 277 276 273 278 285 289 294 297 296 297 296 292 292 292 288 288 290 290 294 304 306 299 291 287 284 282 281 280 279 278 276 275 275
217 217 215 216 214 207 204 209 207 202 205 212 215 218 221 221 221 225 226 226 227 228 231 234 235 237 235 229 227 222 214 214 215 216 224 230 235 245 259 268 269 269 261 244 251 276 287 292 297 296 296 296 295 294 294 292 290 286 283 294 307 310 306 303 301 299 297 294 290 288 285 282 280 279
219 221 219 216 212 207 205 212 213 208 202 204 208 211 213 214 216 220 222 222 221 221 223 229 234 235 232 231 234 228 215 209 206 208 219 222 223 238 256 263 266 268 252 217 228 271 285 291 296 297 297 296 294 292 292 292 289 284 286 298 305 307 307 308 307 307 306 303 297 292 289 287 286 284
222 223 222 218 213 209 209 213 215 212 206 203 208 210 207 208 213 216 219 221 222 221 220 222 227 230 232 237 240 229 217 212 204 205 217 223 227 238 248 257 265 269 259 236 241 270 282 291 298 297 295 293 288 287 288 290 289 290 296 302 304 305 306 306 306 307 309 308 304 299 295 292 291 291
224 224 224 222 217 212 211 212 213 213 209 205 209 212 207 206 210 211 211 212 216 220 220 220 223 229 233 236 235 229 224 221 216 216 224 232 238 242 248 259 268 272 270 259 247 259 278 291 296 294 293 290 285 285 291 292 292 295 300 304 305 305 305 304 305 306 308 309 308 306 303 297 294 295
226 225 224 223 221 217 214 213 212 212 209 204 205 209 209 209 209 209 210 206 203 208 213 215 221 226 226 225 226 229 228 225 223 224 229 238 243 246 256 263 265 275 276 240 213 241 276 288 292 293 295 293 289 292 297 297 297 300 302 303 302 301 302 304 305 307 306 305 305 306 307 306 301 298
226 224 223 224 224 219 214 212 211 211 209 204 202 206 211 212 210 210 212 208 202 202 203 204 210 214 213 214 219 223 226 225 225 225 228 237 241 243 253 254 253 270 279 187 175 256 289 287 290 292 292 294 296 297 298 299 301 304 304 303 303 302 304 304 304 303 302 301 302 303 305 307 304 296
224 223 220 222 222 219 215 212 210 210 210 206 202 204 209 210 208 210 210 202 199 202 197 191 193 197 201 208 213 215 218 220 220 220 226 237 240 238 244 252 259 271 278 201 230 294 289 282 286 290 289 290 292 296 302 303 302 304 304 303 304 304 304 303 300 300 301 301 302 304 304 303 300 295
219 219 215 215 218 218 215 211 208 208 210 208 203 202 204 205 204 207 205 195 194 201 198 190 189 191 196 206 212 213 213 212 213 218 227 233 233 233 241 256 267 268 268 278 286 280 271 274 282 288 290 291 292 297 302 301 303 307 306 304 303 303 302 301 301 303 304 303 303 303 301 297 297 297
211 212 211 212 217 218 213 208 208 209 208 206 203 198 198 201 200 199 198 193 194 199 197 191 191 193 197 204 209 211 213 213 215 221 225 221 218 222 231 237 244 249 255 273 282 267 261 268 275 281 286 291 294 296 299 301 306 308 305 304 304 302 301 302 302 302 303 304 304 304 302 302 303 303
210 210 209 209 212 214 210 206 207 209 205 203 201 196 194 198 197 193 193 192 192 195 193 191 193 195 199 205 207 209 212 214 213 212 210 205 202 206 215 220 229 243 251 261 267 261 256 263 271 276 280 284 289 292 296 300 303 304 304 305 304 303 302 301 300 301 304 305 306 308 308 309 308 305
215 211 207 204 208 211 207 202 203 204 202 201 200 195 193 194 192 192 193 191 190 191 190 190 193 194 197 204 208 208 209 208 204 198 192 191 194 198 210 221 231 241 247 253 256 253 251 258 268 275 277 279 282 287 292 296 298 300 302 301 301 301 301 299 300 303 305 306 309 311 312 310 308 305
218 211 205 202 204 205 200 197 198 199 198 198 198 195 192 191 191 194 194 188 186 189 189 189 192 193 194 200 202 199 200 201 198 191 183 184 192 201 211 224 237 245 245 245 247 247 248 255 263 269 274 277 278 282 288 293 295 296 297 297 298 299 299 302 304 304 305 307 309 311 311 308 305 303
216 209 202 199 198 198 196 194 193 193 192 192 194 192 190 191 193 195 193 188 188 191 190 188 189 188 187 187 186 188 196 198 193 186 184 189 199 208 213 224 243 252 246 239 241 242 244 254 262 264 268 274 278 282 286 289 289 290 291 292 293 297 301 305 306 303 306 309 310 309 309 307 304 302
216 205 195 190 189 189 187 184 182 184 185 185 185 185 186 190 194 192 190 191 192 191 188 186 184 180 176 179 186 191 195 194 187 183 187 197 208 213 214 222 240 252 248 239 237 236 239 250 256 256 260 267 274 281 285 284 282 284 287 290 293 296 300 303 303 305 309 310 309 308 307 305 304 304
211 196 184 179 178 177 174 172 172 174 175 174 174 176 180 188 191 189 191 196 194 189 186 184 179 172 170 179 189 193 190 186 185 186 191 199 207 210 214 226 242 251 253 248 243 240 243 249 252 255 260 264 268 272 277 278 279 280 284 292 297 298 299 300 302 305 310 311 309 308 306 305 305 304
202 190 181 176 173 169 168 169 170 171 169 167 168 172 177 183 187 188 193 197 193 187 185 181 174 170 174 181 186 187 183 182 187 192 197 204 209 210 217 233 243 247 249 251 251 250 250 252 256 262 265 267 266 261 257 260 270 277 283 291 299 301 300 301 301 305 309 309 306 306 306 305 305 304
195 188 183 179 173 170 169 169 169 168 167 166 166 168 173 179 183 186 190 193 190 184 183 180 175 173 177 179 181 182 183 186 192 192 195 210 220 219 222 235 244 244 244 245 248 250 251 254 263 271 275 276 275 267 256 249 252 268 284 292 298 302 301 299 301 305 307 305 303 305 306 305 305 306
191 188 186 181 176 174 172 169 166 164 163 164 163 162 166 176 184 187 189 189 186 182 179 179 178 176 175 176 179 182 185 192 197 194 197 216 227 225 226 236 242 244 246 247 246 247 247 252 262 274 282 283 284 286 274 244 230 257 289 296 298 302 301 299 300 302 303 305 306 306 304 304 304 305
186 185 186 186 188 184 174 163 160 159 159 160 159 157 162 172 181 185 186 185 181 178 178 178 177 175 175 175 178 183 188 197 205 207 212 222 225 223 227 234 235 236 239 240 239 239 241 247 254 262 275 282 280 290 298 266 234 256 285 296 299 300 300 299 299 300 303 306 306 305 304 303 302 303
179 178 173 165 174 172 156 148 149 153 156 156 156 158 162 168 173 179 183 182 177 173 175 177 175 174 175 176 179 185 193 203 214 221 224 224 221 219 225 233 234 233 232 232 234 233 234 241 248 251 261 273 277 287 302 300 282 278 288 293 293 294 296 296 296 299 304 306 306 306 305 302 300 301
172 171 161 148 145 146 145 144 147 153 157 158 157 157 160 164 166 172 179 181 178 173 174 176 175 175 178 181 184 191 200 208 217 223 222 220 218 217 222 231 234 231 230 230 231 228 227 234 243 247 253 265 278 289 297 298 294 290 287 283 280 280 285 291 295 299 303 306 307 308 306 303 302 303
161 160 152 146 148 150 148 147 150 156 161 160 157 156 157 159 161 167 175 179 180 177 176 175 175 177 181 185 189 198 208 213 218 222 220 217 217 217 220 228 231 231 231 231 228 227 228 230 232 237 248 264 279 285 285 283 282 281 282 283 282 281 282 285 291 295 299 303 308 309 308 309 311 311
147 147 143 143 144 144 144 145 149 155 158 156 154 154 157 160 165 171 177 181 182 180 178 177 177 180 185 190 195 206 216 216 217 218 216 214 216 214 212 219 229 232 231 230 228 225 224 224 231 243 253 263 270 274 273 273 277 284 291 297 299 294 289 287 287 289 293 299 305 307 309 313 315 316
135 135 136 138 138 138 141 146 150 154 155 155 154 154 156 161 168 175 181 183 182 181 179 177 178 184 191 196 201 211 219 217 214 213 211 210 212 207 201 213 230 233 228 226 226 223 220 228 244 251 255 257 259 265 269 273 284 294 298 301 303 301 297 294 293 293 295 296 297 300 306 313 317 319
127 130 132 134 134 136 143 149 152 154 154 154 155 157 158 160 168 175 178 179 179 180 180 179 182 190 199 202 204 210 215 213 209 208 207 208 211 208 204 213 225 228 225 224 225 225 229 235 239 246 251 252 256 264 272 278 286 293 297 301 305 304 300 298 298 300 301 300 297 295 299 305 310 313
124 128 130 133 134 138 144 149 151 151 152 153 156 159 160 164 170 173 174 173 176 180 183 184 188 196 203 204 205 208 211 209 205 204 206 208 209 209 210 214 219 224 227 227 224 222 227 235 242 248 253 258 263 269 274 280 287 293 297 301 303 303 304 305 305 304 305 306 306 304 304 308 311 310
121 125 128 131 133 137 142 146 149 152 154 157 160 162 163 165 169 171 172 173 176 181 186 188 193 199 203 204 205 205 205 203 202 202 204 204 205 208 214 219 222 225 227 224 220 220 225 236 247 250 253 260 265 267 272 279 283 288 295 300 303 307 311 311 308 308 309 312 313 315 321 324 321 320